17/07/2024 13:45:00,0.502
17/07/2024 14:00:00,0.503
17/07/2024 14:15:00,0.502
17/07/2024 14:30:00,0.5
17/07/2024 14:45:00,0.5
17/07/2024 15:00:00,0.499
17/07/2024 15:15:00,0.498
17/07/2024 15:30:00,0.497
17/07/2024 15:45:00,0.498
17/07/2024 16:00:00,0.496
17/07/2024 16:15:00,0.494
17/07/2024 16:30:00,0.494
17/07/2024 16:45:00,0.492
17/07/2024 17:00:00,0.492
17/07/2024 17:15:00,0.492
17/07/2024 17:30:00,0.492
17/07/2024 17:45:00,0.49
17/07/2024 18:00:00,0.489
17/07/2024 18:15:00,0.487
17/07/2024 18:30:00,0.488
17/07/2024 18:45:00,0.486
17/07/2024 19:00:00,0.485
17/07/2024 19:15:00,0.485
17/07/2024 19:30:00,0.484
17/07/2024 19:45:00,0.483
17/07/2024 20:00:00,0.483
17/07/2024 20:15:00,0.482
17/07/2024 20:30:00,0.481
17/07/2024 20:45:00,0.48
17/07/2024 21:00:00,0.479
17/07/2024 21:15:00,0.478
17/07/2024 21:30:00,0.478
17/07/2024 21:45:00,0.477
17/07/2024 22:00:00,0.476
17/07/2024 22:15:00,0.475
17/07/2024 22:30:00,0.474
17/07/2024 22:45:00,0.473
17/07/2024 23:00:00,0.472
17/07/2024 23:15:00,0.472
17/07/2024 23:30:00,0.472
17/07/2024 23:45:00,0.47
18/07/2024 00:00:00,0.47
18/07/2024 00:15:00,0.469
18/07/2024 00:30:00,0.469
18/07/2024 00:45:00,0.468
18/07/2024 01:00:00,0.467
18/07/2024 01:15:00,0.466
18/07/2024 01:30:00,0.465
18/07/2024 01:45:00,0.465
18/07/2024 02:00:00,0.465
18/07/2024 02:15:00,0.464
18/07/2024 02:30:00,0.463
18/07/2024 02:45:00,0.464
18/07/2024 03:00:00,0.463
18/07/2024 03:15:00,0.461
18/07/2024 03:30:00,0.463
18/07/2024 03:45:00,0.461
18/07/2024 04:00:00,0.461
18/07/2024 04:15:00,0.461
18/07/2024 04:30:00,0.461
18/07/2024 04:45:00,0.46
18/07/2024 05:00:00,0.46
18/07/2024 05:15:00,0.46
18/07/2024 05:30:00,0.46
18/07/2024 05:45:00,0.458
18/07/2024 06:00:00,0.458
18/07/2024 06:15:00,0.459
18/07/2024 06:30:00,0.458
18/07/2024 06:45:00,0.458
18/07/2024 07:00:00,0.458
18/07/2024 07:15:00,0.458
18/07/2024 07:30:00,0.458
18/07/2024 07:45:00,0.458
18/07/2024 08:00:00,0.457
18/07/2024 08:15:00,0.458
18/07/2024 08:30:00,0.458
18/07/2024 08:45:00,0.458
18/07/2024 09:00:00,0.457
18/07/2024 09:15:00,0.456
18/07/2024 09:30:00,0.456
18/07/2024 09:45:00,0.456
18/07/2024 10:00:00,0.457
18/07/2024 10:15:00,0.457
18/07/2024 10:30:00,0.457
18/07/2024 10:45:00,0.456
18/07/2024 11:00:00,0.456
18/07/2024 11:15:00,0.455
18/07/2024 11:30:00,0.456
18/07/2024 11:45:00,0.455
18/07/2024 12:00:00,0.452
18/07/2024 12:15:00,0.456
18/07/2024 12:30:00,0.453
18/07/2024 12:45:00,0.451
18/07/2024 13:00:00,0.452
18/07/2024 13:15:00,0.452
18/07/2024 13:30:00,0.453
18/07/2024 13:45:00,0.453
18/07/2024 14:00:00,0.452
18/07/2024 14:15:00,0.451
18/07/2024 14:30:00,0.45
18/07/2024 14:45:00,0.452
18/07/2024 15:00:00,0.452
18/07/2024 15:15:00,0.451
18/07/2024 15:30:00,0.451
18/07/2024 15:45:00,0.452
18/07/2024 16:00:00,0.452
18/07/2024 16:15:00,0.452
18/07/2024 16:30:00,0.451
18/07/2024 16:45:00,0.453
18/07/2024 17:00:00,0.451
18/07/2024 17:15:00,0.452
18/07/2024 17:30:00,0.451
18/07/2024 17:45:00,0.451
18/07/2024 18:00:00,0.45
18/07/2024 18:15:00,0.45
18/07/2024 18:30:00,0.451
18/07/2024 18:45:00,0.45
18/07/2024 19:00:00,0.448
18/07/2024 19:15:00,0.449
18/07/2024 19:30:00,0.449
18/07/2024 19:45:00,0.447
18/07/2024 20:00:00,0.448
18/07/2024 20:15:00,0.448
18/07/2024 20:30:00,0.448
18/07/2024 20:45:00,0.448
18/07/2024 21:00:00,0.447
18/07/2024 21:15:00,0.447
18/07/2024 21:30:00,0.447
18/07/2024 21:45:00,0.446
18/07/2024 22:00:00,0.446
18/07/2024 22:15:00,0.446
18/07/2024 22:30:00,0.445
18/07/2024 22:45:00,0.445
18/07/2024 23:00:00,0.446
18/07/2024 23:15:00,0.445
18/07/2024 23:30:00,0.445
18/07/2024 23:45:00,0.444
19/07/2024 00:00:00,0.444
19/07/2024 00:15:00,0.445
19/07/2024 00:30:00,0.444
19/07/2024 00:45:00,0.443
19/07/2024 01:00:00,0.443
19/07/2024 01:15:00,0.443
19/07/2024 01:30:00,0.442
19/07/2024 01:45:00,0.442
19/07/2024 02:00:00,0.443
19/07/2024 02:15:00,0.442
19/07/2024 02:30:00,0.442
19/07/2024 02:45:00,0.442
19/07/2024 03:00:00,0.441
19/07/2024 03:15:00,0.441
19/07/2024 03:30:00,0.441
19/07/2024 03:45:00,0.441
19/07/2024 04:00:00,0.441
19/07/2024 04:15:00,0.441
19/07/2024 04:30:00,0.441
19/07/2024 04:45:00,0.441
19/07/2024 05:00:00,0.44
19/07/2024 05:15:00,0.44
19/07/2024 05:30:00,0.441
19/07/2024 05:45:00,0.44
19/07/2024 06:00:00,0.441
19/07/2024 06:15:00,0.441
19/07/2024 06:30:00,0.441
19/07/2024 06:45:00,0.44
19/07/2024 07:00:00,0.44
19/07/2024 07:15:00,0.44
19/07/2024 07:30:00,0.441
19/07/2024 07:45:00,0.441
19/07/2024 08:00:00,0.44
19/07/2024 08:15:00,0.441
19/07/2024 08:30:00,0.443
19/07/2024 08:45:00,0.441
19/07/2024 09:00:00,0.442
19/07/2024 09:15:00,0.443
19/07/2024 09:30:00,0.441
19/07/2024 09:45:00,0.442
19/07/2024 10:00:00,0.442
19/07/2024 10:15:00,0.442
19/07/2024 10:30:00,0.441
19/07/2024 10:45:00,0.442
19/07/2024 11:00:00,0.441
19/07/2024 11:15:00,0.441
19/07/2024 11:30:00,0.439
19/07/2024 11:45:00,0.441
19/07/2024 12:00:00,0.44
19/07/2024 12:15:00,0.441
19/07/2024 12:30:00,0.441
19/07/2024 12:45:00,0.441
19/07/2024 13:00:00,0.439
19/07/2024 13:15:00,0.442
19/07/2024 13:30:00,0.44
19/07/2024 13:45:00,0.439
19/07/2024 14:00:00,0.44
19/07/2024 14:15:00,0.441
19/07/2024 14:30:00,0.441
19/07/2024 14:45:00,0.44
19/07/2024 15:00:00,0.44
19/07/2024 15:15:00,0.439
19/07/2024 15:30:00,0.44
19/07/2024 15:45:00,0.439
19/07/2024 16:00:00,0.438
19/07/2024 16:15:00,0.438
19/07/2024 16:30:00,0.438
19/07/2024 16:45:00,0.438
19/07/2024 17:00:00,0.438
19/07/2024 17:15:00,0.438
19/07/2024 17:30:00,0.437
19/07/2024 17:45:00,0.436
19/07/2024 18:00:00,0.437
19/07/2024 18:15:00,0.436
19/07/2024 18:30:00,0.437
19/07/2024 18:45:00,0.437
19/07/2024 19:00:00,0.436
19/07/2024 19:15:00,0.436
19/07/2024 19:30:00,0.436
19/07/2024 19:45:00,0.434
19/07/2024 20:00:00,0.434
19/07/2024 20:15:00,0.434
19/07/2024 20:30:00,0.434
19/07/2024 20:45:00,0.434
19/07/2024 21:00:00,0.434
19/07/2024 21:15:00,0.434
19/07/2024 21:30:00,0.434
19/07/2024 21:45:00,0.434
19/07/2024 22:00:00,0.433
19/07/2024 22:15:00,0.433
19/07/2024 22:30:00,0.433
19/07/2024 22:45:00,0.432
19/07/2024 23:00:00,0.432
19/07/2024 23:15:00,0.431
19/07/2024 23:30:00,0.431
19/07/2024 23:45:00,0.431
20/07/2024 00:00:00,0.43
20/07/2024 00:15:00,0.43
20/07/2024 00:30:00,0.43
20/07/2024 00:45:00,0.43
20/07/2024 01:00:00,0.429
20/07/2024 01:15:00,0.43
20/07/2024 01:30:00,0.429
20/07/2024 01:45:00,0.428
20/07/2024 02:00:00,0.428
20/07/2024 02:15:00,0.427
20/07/2024 02:30:00,0.429
20/07/2024 02:45:00,0.428
20/07/2024 03:00:00,0.428
20/07/2024 03:15:00,0.426
20/07/2024 03:30:00,0.426
20/07/2024 03:45:00,0.427
20/07/2024 04:00:00,0.427
20/07/2024 04:15:00,0.426
20/07/2024 04:30:00,0.426
20/07/2024 04:45:00,0.427
20/07/2024 05:00:00,0.428
20/07/2024 05:15:00,0.427
20/07/2024 05:30:00,0.427
20/07/2024 05:45:00,0.427
20/07/2024 06:00:00,0.427
20/07/2024 06:15:00,0.427
20/07/2024 06:30:00,0.428
20/07/2024 06:45:00,0.427
20/07/2024 07:00:00,0.427
20/07/2024 07:15:00,0.427
20/07/2024 07:30:00,0.427
20/07/2024 07:45:00,0.427
20/07/2024 08:00:00,0.428
20/07/2024 08:15:00,0.428
20/07/2024 08:30:00,0.429
20/07/2024 08:45:00,0.429
20/07/2024 09:00:00,0.429
20/07/2024 09:15:00,0.43
20/07/2024 09:30:00,0.429
20/07/2024 09:45:00,0.43
20/07/2024 10:00:00,0.43
20/07/2024 10:15:00,0.43
20/07/2024 10:30:00,0.43
20/07/2024 10:45:00,0.431
20/07/2024 11:00:00,0.43
20/07/2024 11:15:00,0.428
20/07/2024 11:30:00,0.43
20/07/2024 11:45:00,0.43
20/07/2024 12:00:00,0.43
20/07/2024 12:15:00,0.431
20/07/2024 12:30:00,0.431
20/07/2024 12:45:00,0.431
20/07/2024 13:00:00,0.43
20/07/2024 13:15:00,0.429
20/07/2024 13:30:00,0.43
20/07/2024 13:45:00,0.429
20/07/2024 14:00:00,0.429
20/07/2024 14:15:00,0.43
20/07/2024 14:30:00,0.429
20/07/2024 14:45:00,0.43
20/07/2024 15:00:00,0.43
20/07/2024 15:15:00,0.43
20/07/2024 15:30:00,0.429
20/07/2024 15:45:00,0.429
20/07/2024 16:00:00,0.428
20/07/2024 16:15:00,0.429
20/07/2024 16:30:00,0.429
20/07/2024 16:45:00,0.429
20/07/2024 17:00:00,0.43
20/07/2024 17:15:00,0.429
20/07/2024 17:30:00,0.429
20/07/2024 17:45:00,0.43
20/07/2024 18:00:00,0.43
20/07/2024 18:15:00,0.43
20/07/2024 18:30:00,0.43
20/07/2024 18:45:00,0.43
20/07/2024 19:00:00,0.429
20/07/2024 19:15:00,0.429
20/07/2024 19:30:00,0.43
20/07/2024 19:45:00,0.43
20/07/2024 20:00:00,0.43
20/07/2024 20:15:00,0.431
20/07/2024 20:30:00,0.432
20/07/2024 20:45:00,0.433
20/07/2024 21:00:00,0.435
20/07/2024 21:15:00,0.436
20/07/2024 21:30:00,0.446
20/07/2024 21:45:00,0.462
20/07/2024 22:00:00,0.462
20/07/2024 22:15:00,0.455
20/07/2024 22:30:00,0.45
20/07/2024 22:45:00,0.448
20/07/2024 23:00:00,0.448
20/07/2024 23:15:00,0.447
20/07/2024 23:30:00,0.447
20/07/2024 23:45:00,0.448
21/07/2024 00:00:00,0.447
21/07/2024 00:15:00,0.445
21/07/2024 00:30:00,0.442
21/07/2024 00:45:00,0.442
21/07/2024 01:00:00,0.443
21/07/2024 01:15:00,0.443
21/07/2024 01:30:00,0.444
21/07/2024 01:45:00,0.443
21/07/2024 02:00:00,0.444
21/07/2024 02:15:00,0.444
21/07/2024 02:30:00,0.444
21/07/2024 02:45:00,0.445
21/07/2024 03:00:00,0.445
21/07/2024 03:15:00,0.447
21/07/2024 03:30:00,0.447
21/07/2024 03:45:00,0.447
21/07/2024 04:00:00,0.448
21/07/2024 04:15:00,0.45
21/07/2024 04:30:00,0.451
21/07/2024 04:45:00,0.452
21/07/2024 05:00:00,0.453
21/07/2024 05:15:00,0.454
21/07/2024 05:30:00,0.455
21/07/2024 05:45:00,0.456
21/07/2024 06:00:00,0.458
21/07/2024 06:15:00,0.459
21/07/2024 06:30:00,0.462
21/07/2024 06:45:00,0.464
21/07/2024 07:00:00,0.466
21/07/2024 07:15:00,0.468
21/07/2024 07:30:00,0.471
21/07/2024 07:45:00,0.478
21/07/2024 08:00:00,0.486
21/07/2024 08:15:00,0.491
21/07/2024 08:30:00,0.493
21/07/2024 08:45:00,0.494
21/07/2024 09:00:00,0.493
21/07/2024 09:15:00,0.496
21/07/2024 09:30:00,0.494
21/07/2024 09:45:00,0.492
21/07/2024 10:00:00,0.492
21/07/2024 10:15:00,0.491
21/07/2024 10:30:00,0.49
21/07/2024 10:45:00,0.488
21/07/2024 11:00:00,0.487
21/07/2024 11:15:00,0.486
21/07/2024 11:30:00,0.485
21/07/2024 11:45:00,0.484
21/07/2024 12:00:00,0.48
21/07/2024 12:15:00,0.483
21/07/2024 12:30:00,0.481
21/07/2024 12:45:00,0.479
21/07/2024 13:00:00,0.479
21/07/2024 13:15:00,0.478
21/07/2024 13:30:00,0.477
21/07/2024 13:45:00,0.475
21/07/2024 14:00:00,0.475
21/07/2024 14:15:00,0.475
21/07/2024 14:30:00,0.473
21/07/2024 14:45:00,0.472
21/07/2024 15:00:00,0.47
21/07/2024 15:15:00,0.47
21/07/2024 15:30:00,0.47
21/07/2024 15:45:00,0.468
21/07/2024 16:00:00,0.468
21/07/2024 16:15:00,0.468
21/07/2024 16:30:00,0.467
21/07/2024 16:45:00,0.466
21/07/2024 17:00:00,0.466
21/07/2024 17:15:00,0.465
21/07/2024 17:30:00,0.464
21/07/2024 17:45:00,0.463
21/07/2024 18:00:00,0.464
21/07/2024 18:15:00,0.462
21/07/2024 18:30:00,0.463
21/07/2024 18:45:00,0.462
21/07/2024 19:00:00,0.461
21/07/2024 19:15:00,0.461
21/07/2024 19:30:00,0.461
21/07/2024 19:45:00,0.46
21/07/2024 20:00:00,0.459
21/07/2024 20:15:00,0.457
21/07/2024 20:30:00,0.457
21/07/2024 20:45:00,0.458
21/07/2024 21:00:00,0.456
21/07/2024 21:15:00,0.457
21/07/2024 21:30:00,0.456
21/07/2024 21:45:00,0.455
21/07/2024 22:00:00,0.456
21/07/2024 22:15:00,0.455
21/07/2024 22:30:00,0.455
21/07/2024 22:45:00,0.454
21/07/2024 23:00:00,0.454
21/07/2024 23:15:00,0.454
21/07/2024 23:30:00,0.453
21/07/2024 23:45:00,0.452
22/07/2024 00:00:00,0.452
22/07/2024 00:15:00,0.452
22/07/2024 00:30:00,0.452
22/07/2024 00:45:00,0.452
22/07/2024 01:00:00,0.451
22/07/2024 01:15:00,0.451
22/07/2024 01:30:00,0.45
22/07/2024 01:45:00,0.45
22/07/2024 02:00:00,0.451
22/07/2024 02:15:00,0.451
22/07/2024 02:30:00,0.45
22/07/2024 02:45:00,0.449
22/07/2024 03:00:00,0.449
22/07/2024 03:15:00,0.45
22/07/2024 03:30:00,0.449
22/07/2024 03:45:00,0.449
22/07/2024 04:00:00,0.449
22/07/2024 04:15:00,0.449
22/07/2024 04:30:00,0.449
22/07/2024 04:45:00,0.45
22/07/2024 05:00:00,0.452
22/07/2024 05:15:00,0.455
22/07/2024 05:30:00,0.458
22/07/2024 05:45:00,0.461
22/07/2024 06:00:00,0.461
22/07/2024 06:15:00,0.461
22/07/2024 06:30:00,0.46
22/07/2024 06:45:00,0.46
22/07/2024 07:00:00,0.459
22/07/2024 07:15:00,0.458
22/07/2024 07:30:00,0.457
22/07/2024 07:45:00,0.457
22/07/2024 08:00:00,0.455
22/07/2024 08:15:00,0.455
22/07/2024 08:30:00,0.455
22/07/2024 08:45:00,0.455
22/07/2024 09:00:00,0.455
22/07/2024 09:15:00,0.455
22/07/2024 09:30:00,0.455
22/07/2024 09:45:00,0.455
22/07/2024 10:00:00,0.455
22/07/2024 10:15:00,0.455
22/07/2024 10:30:00,0.456
22/07/2024 10:45:00,0.456
22/07/2024 11:00:00,0.456
22/07/2024 11:15:00,0.456
22/07/2024 11:30:00,0.455
22/07/2024 11:45:00,0.456
22/07/2024 12:00:00,0.457
22/07/2024 12:15:00,0.457
22/07/2024 12:30:00,0.458
22/07/2024 12:45:00,0.459
22/07/2024 13:00:00,0.46
22/07/2024 13:15:00,0.46
